DW5914 Weather Reports


Display with metric or nautical units.
time (UTC)temp
F
wind
direction
speed
MPH
gust
MPH
rain 1hr
in
rain 24hr
in
rain mn
in
humidity
%
barometer
mb
20260504224537 75 199 3.0 7.0 0.00 0.00 0.00 49 1010.6
20260504223050 74 301 1.0 5.0 0.00 0.00 0.00 53 1010.6
20260504221531 72 355 2.0 5.0 0.00 0.00 0.00 55 1010.7
20260504220032 73 336 2.0 4.0 0.00 0.00 0.00 54 1010.8
20260504214526 71 340 3.0 4.0 0.00 0.00 0.00 58 1011.0
20260504213028 69 345 3.0 4.0 0.00 0.00 0.00 58 1011.1
20260504211534 70 334 2.0 4.0 0.00 0.00 0.00 57 1011.2
20260504210022 70 328 2.0 4.0 0.00 0.00 0.00 59 1011.2
20260504204521 69 59 3.0 5.0 0.00 0.00 0.00 60 1011.4
20260504203020 69 351 2.0 5.0 0.00 0.00 0.00 60 1011.5
20260504201517 69 331 1.0 5.0 0.00 0.00 0.00 61 1011.7
20260504200018 67 325 2.0 5.0 0.00 0.00 0.00 63 1011.8
20260504194514 68 341 1.0 5.0 0.00 0.00 0.00 62 1011.8
20260504193012 67 341 1.0 5.0 0.00 0.00 0.00 63 1011.7
20260504191511 67 9 4.0 6.0 0.00 0.00 0.00 61 1011.9
20260504190009 66 323 2.0 4.0 0.00 0.00 0.00 64 1011.9
20260504184508 67 329 2.0 4.0 0.00 0.00 0.00 62 1011.9
20260504183009 64 70 2.0 5.0 0.00 0.00 0.00 66 1012.0
20260504181505 64 21 3.0 5.0 0.00 0.00 0.00 68 1012.0
20260504180002 63 46 2.0 4.0 0.00 0.00 0.00 70 1012.0
20260504174501 64 49 3.0 5.0 0.00 0.00 0.00 67 1012.1
20260504173100 64 47 3.0 5.0 0.00 0.00 0.00 66 1012.1
20260504171558 63 51 2.0 5.0 0.00 0.00 0.00 68 1012.2
20260504081502 62 135 1.0 3.0 0.00 0.00 0.00 57 1011.0
20260504044549 66 40 3.0 5.0 0.00 0.00 0.00 50 1011.0
20260504043053 66 57 3.0 7.0 0.00 0.00 0.00 50 1010.9
20260504041549 66 31 2.0 6.0 0.00 0.00 0.00 50 1010.9
20260504040107 66 55 3.0 5.0 0.00 0.00 0.00 50 1010.9
20260504034548 68 348 2.0 5.0 0.00 0.00 0.00 47 1010.8
20260504033050 67 51 2.0 6.0 0.00 0.00 0.00 46 1010.7
20260504031555 66 78 0.0 3.0 0.00 0.00 0.00 51 1010.6
20260504030045 66 40 0.0 3.0 0.00 0.00 0.00 53 1010.7
20260504024545 66 26 2.0 6.0 0.00 0.00 0.00 53 1010.7
20260504023044 66 360 4.0 8.0 0.00 0.00 0.00 53 1010.7
20260504021543 64 55 3.0 6.0 0.00 0.00 0.00 57 1010.9
20260504020043 65 56 2.0 6.0 0.00 0.00 0.00 57 1011.1
20260504014542 66 30 4.0 10.0 0.00 0.00 0.00 54 1011.1
20260504013042 65 63 4.0 10.0 0.00 0.00 0.00 57 1011.3
20260504011540 65 22 4.0 12.0 0.00 0.00 0.00 57 1011.5
20260504010036 65 360 5.0 10.0 0.00 0.00 0.00 57 1011.5
20260504004536 66 5 5.0 9.0 0.00 0.00 0.00 57 1011.6
20260504003034 65 360 4.0 9.0 0.00 0.00 0.00 59 1011.7
20260504001538 68 335 5.0 9.0 0.00 0.00 0.00 50 1011.8
20260504000032 70 51 4.0 8.0 0.00 0.00 0.00 46 1012.0
20260503234532 68 51 2.0 8.0 0.00 0.00 0.00 51 1012.1
20260503233034 68 355 3.0 8.0 0.00 0.00 0.00 52 1012.2
20260503231521 66 26 3.0 9.0 0.00 0.00 0.00 56 1012.5
20260503230019 67 51 6.0 12.0 0.00 0.00 0.00 53 1012.7